| time (UTC) | temp F | wind direction | speed knots | gust knots | rain 1hr in | rain 24hr in | rain mn in | humidity % | barometer mb |
| 20260906115245 | 69 | 64 | 0.0 | 0.9 | 0.00 | 0.00 | 0.00 | 1 | 1017.9 |
| 20260906114345 | 69 | 64 | 0.0 | 1.7 | 0.00 | 0.00 | 0.00 | 1 | 1017.7 |
| 20260906113445 | 69 | 56 | 0.0 | 1.7 | 0.00 | 0.00 | 0.00 | 1 | 1017.6 |
| 20260906112545 | 69 | 30 | 0.0 | 0.9 | 0.00 | 0.00 | 0.00 | 1 | 1017.4 |
| 20260906111644 | 69 | 355 | 0.0 | 0.9 | 0.00 | 0.00 | 0.00 | 1 | 1017.3 |
| 20260906110811 | 69 | 65 | 0.0 | 0.9 | 0.00 | 0.00 | 0.00 | 1 | 1017.3 |
| 20260906104945 | 69 | 31 | 0.0 | 0.9 | 0.00 | 0.00 | 0.00 | 1 | 1017.2 |
| 20260906104046 | 69 | 0 | 0.0 | 0.0 | 0.00 | 0.00 | 0.00 | 1 | 1016.9 |
| 20260906103146 | 69 | 0 | 0.0 | 0.0 | 0.00 | 0.00 | 0.00 | 1 | 1016.9 |
| 20260906102245 | 69 | 31 | 0.0 | 0.9 | 0.00 | 0.00 | 0.00 | 1 | 1017.0 |
| 20260906100445 | 69 | 0 | 0.0 | 0.0 | 0.00 | 0.00 | 0.00 | 1 | 1016.9 |
| 20260906095545 | 70 | 31 | 0.0 | 0.9 | 0.00 | 0.00 | 0.00 | 1 | 1016.8 |
| 20260906094646 | 70 | 30 | 0.0 | 0.9 | 0.00 | 0.00 | 0.00 | 1 | 1016.7 |
| 20260906093746 | 70 | 0 | 0.0 | 0.0 | 0.00 | 0.00 | 0.00 | 1 | 1016.7 |
| 20260906092845 | 70 | 38 | 0.0 | 1.7 | 0.00 | 0.00 | 0.00 | 1 | 1016.9 |
| 20260906091946 | 70 | 31 | 0.0 | 1.7 | 0.00 | 0.00 | 0.00 | 1 | 1016.8 |
| 20260906091046 | 70 | 1 | 0.0 | 0.9 | 0.00 | 0.00 | 0.00 | 1 | 1016.6 |
| 20260906090145 | 70 | 0 | 0.0 | 0.0 | 0.00 | 0.00 | 0.00 | 1 | 1016.7 |
| 20260906085245 | 70 | 0 | 0.0 | 0.0 | 0.00 | 0.00 | 0.00 | 1 | 1016.7 |
| 20260906084346 | 70 | 1 | 0.0 | 0.9 | 0.00 | 0.00 | 0.00 | 1 | 1016.7 |
| 20260906083446 | 71 | 0 | 0.0 | 0.0 | 0.00 | 0.00 | 0.00 | 1 | 1016.5 |
| 20260906081646 | 71 | 1 | 0.0 | 0.9 | 0.00 | 0.00 | 0.00 | 1 | 1016.6 |
| 20260906080746 | 71 | 0 | 0.0 | 0.0 | 0.00 | 0.00 | 0.00 | 1 | 1016.7 |
| 20260906074046 | 72 | 345 | 0.0 | 0.9 | 0.00 | 0.00 | 0.00 | 1 | 1016.8 |
| 20260906073146 | 72 | 324 | 0.0 | 0.9 | 0.00 | 0.00 | 0.00 | 1 | 1016.9 |
| 20260906072246 | 72 | 324 | 0.0 | 0.9 | 0.00 | 0.00 | 0.00 | 1 | 1016.9 |
| 20260906071345 | 72 | 0 | 0.0 | 0.0 | 0.00 | 0.00 | 0.00 | 1 | 1016.9 |
| 20260906070446 | 72 | 324 | 0.0 | 0.9 | 0.00 | 0.00 | 0.00 | 1 | 1017.0 |
| 20260906065545 | 72 | 0 | 0.0 | 0.0 | 0.00 | 0.00 | 0.00 | 1 | 1017.1 |
| 20260906064646 | 72 | 9 | 0.0 | 0.9 | 0.00 | 0.00 | 0.00 | 1 | 1017.0 |
| 20260906063746 | 72 | 74 | 0.0 | 0.9 | 0.00 | 0.00 | 0.00 | 1 | 1016.9 |
| 20260906062845 | 72 | 90 | 0.0 | 0.9 | 0.00 | 0.00 | 0.00 | 1 | 1016.8 |
| 20260906061946 | 72 | 94 | 0.0 | 0.9 | 0.00 | 0.00 | 0.00 | 1 | 1016.9 |
| 20260906061046 | 72 | 0 | 0.0 | 0.0 | 0.00 | 0.00 | 0.00 | 2 | 1016.9 |
| 20260906055246 | 72 | 351 | 0.0 | 0.9 | 0.00 | 0.00 | 0.00 | 4 | 1016.8 |
| 20260906054346 | 72 | 34 | 0.0 | 0.9 | 0.00 | 0.00 | 0.00 | 5 | 1016.6 |
| 20260906053446 | 73 | 71 | 0.0 | 2.6 | 0.00 | 0.00 | 0.00 | 7 | 1016.7 |
| 20260906052546 | 73 | 336 | 0.0 | 1.7 | 0.00 | 0.00 | 0.00 | 8 | 1016.6 |
| 20260906051646 | 73 | 61 | 0.0 | 2.6 | 0.00 | 0.00 | 0.00 | 8 | 1016.6 |
| 20260906050746 | 73 | 65 | 0.0 | 0.9 | 0.00 | 0.00 | 0.00 | 7 | 1016.5 |
| 20260906045846 | 73 | 88 | 0.0 | 0.9 | 0.00 | 0.00 | 0.00 | 7 | 1016.6 |
| 20260906044946 | 73 | 326 | 0.0 | 1.7 | 0.00 | 0.00 | 0.00 | 7 | 1016.5 |
| 20260906044046 | 73 | 65 | 0.0 | 0.9 | 0.00 | 0.00 | 0.00 | 8 | 1016.4 |
| 20260906043146 | 73 | 40 | 0.0 | 0.9 | 0.00 | 0.00 | 0.00 | 9 | 1016.2 |
| 20260906041346 | 73 | 340 | 0.0 | 0.9 | 0.00 | 0.00 | 0.00 | 15 | 1015.9 |
| 20260906035546 | 73 | 187 | 0.0 | 0.9 | 0.00 | 0.00 | 0.00 | 19 | 1015.7 |
| 20260906034645 | 73 | 223 | 0.0 | 3.5 | 0.00 | 0.00 | 0.00 | 22 | 1015.6 |
| 20260906033746 | 74 | 277 | 0.0 | 1.7 | 0.00 | 0.00 | 0.00 | 22 | 1015.5 |
| 20260906032846 | 74 | 51 | 0.0 | 0.9 | 0.00 | 0.00 | 0.00 | 23 | 1015.6 |
| 20260906031945 | 73 | 63 | 0.9 | 1.7 | 0.00 | 0.00 | 0.00 | 25 | 1015.6 |
| 20260906030146 | 73 | 77 | 0.0 | 0.9 | 0.00 | 0.00 | 0.00 | 25 | 1015.5 |
| 20260906025246 | 73 | 77 | 0.0 | 0.9 | 0.00 | 0.00 | 0.00 | 25 | 1015.6 |
| 20260906024346 | 73 | 84 | 0.9 | 2.6 | 0.00 | 0.00 | 0.00 | 25 | 1015.7 |
| 20260906023446 | 73 | 48 | 0.9 | 2.6 | 0.00 | 0.00 | 0.00 | 25 | 1015.6 |
| 20260906022546 | 73 | 240 | 0.9 | 4.3 | 0.00 | 0.00 | 0.00 | 23 | 1015.6 |
| 20260906021646 | 73 | 100 | 0.9 | 3.5 | 0.00 | 0.00 | 0.00 | 23 | 1015.6 |
| 20260906020745 | 73 | 136 | 0.9 | 3.5 | 0.00 | 0.00 | 0.00 | 25 | 1015.5 |
| 20260906015846 | 73 | 299 | 0.9 | 2.6 | 0.00 | 0.00 | 0.00 | 25 | 1015.4 |
| 20260906014946 | 73 | 70 | 0.9 | 2.6 | 0.00 | 0.00 | 0.00 | 26 | 1015.6 |
| 20260906014046 | 74 | 280 | 0.9 | 4.3 | 0.00 | 0.00 | 0.00 | 24 | 1015.7 |
| 20260906013146 | 74 | 343 | 0.0 | 1.7 | 0.00 | 0.00 | 0.00 | 20 | 1015.6 |
| 20260906012245 | 74 | 7 | 0.9 | 2.6 | 0.00 | 0.00 | 0.00 | 23 | 1015.5 |
| 20260906011345 | 74 | 226 | 0.9 | 2.6 | 0.00 | 0.00 | 0.00 | 25 | 1015.6 |
| 20260906010446 | 74 | 67 | 0.9 | 1.7 | 0.00 | 0.00 | 0.00 | 27 | 1015.6 |
| 20260906005546 | 74 | 45 | 0.9 | 3.5 | 0.00 | 0.00 | 0.00 | 29 | 1015.5 |
| 20260906004645 | 74 | 329 | 0.9 | 4.3 | 0.00 | 0.00 | 0.00 | 31 | 1015.3 |
| 20260906003745 | 74 | 331 | 0.9 | 3.5 | 0.00 | 0.00 | 0.00 | 35 | 1015.2 |
| 20260906002846 | 74 | 230 | 0.9 | 3.5 | 0.00 | 0.00 | 0.00 | 34 | 1015.1 |
| 20260906001945 | 74 | 152 | 0.0 | 2.6 | 0.00 | 0.00 | 0.00 | 33 | 1014.8 |
| 20260906001046 | 75 | 331 | 0.9 | 4.3 | 0.00 | 0.00 | 0.00 | 37 | 1014.8 |
| 20260906000145 | 76 | 298 | 0.9 | 4.3 | 0.00 | 0.00 | 0.00 | 42 | 1014.8 |
| 20260905235245 | 76 | 55 | 0.9 | 2.6 | 0.00 | 0.00 | 0.00 | 47 | 1014.8 |
| 20260905234346 | 76 | 229 | 0.9 | 2.6 | 0.00 | 0.00 | 0.00 | 52 | 1014.9 |
| 20260905233446 | 78 | 181 | 0.9 | 2.6 | 0.00 | 0.00 | 0.00 | 56 | 1014.8 |
| 20260905232545 | 78 | 334 | 0.9 | 2.6 | 0.00 | 0.00 | 0.00 | 56 | 1014.7 |
| 20260905231645 | 79 | 308 | 0.0 | 1.7 | 0.00 | 0.00 | 0.00 | 58 | 1014.4 |
| 20260905225846 | 80 | 264 | 0.9 | 5.2 | 0.00 | 0.00 | 0.00 | 62 | 1014.4 |
| 20260905224946 | 81 | 175 | 0.0 | 1.7 | 0.00 | 0.00 | 0.00 | 64 | 1014.2 |
| 20260905224045 | 82 | 133 | 0.9 | 1.7 | 0.00 | 0.00 | 0.00 | 64 | 1014.3 |
| 20260905220445 | 84 | 307 | 0.9 | 1.7 | 0.00 | 0.00 | 0.00 | 63 | 1014.0 |
| 20260905215545 | 84 | 309 | 0.0 | 3.5 | 0.00 | 0.00 | 0.00 | 63 | 1014.1 |
| 20260905214645 | 85 | 166 | 0.0 | 1.7 | 0.00 | 0.00 | 0.00 | 63 | 1014.1 |
| 20260905213745 | 85 | 74 | 0.9 | 1.7 | 0.00 | 0.00 | 0.00 | 63 | 1014.1 |
| 20260905212845 | 84 | 119 | 0.9 | 1.7 | 0.00 | 0.00 | 0.00 | 63 | 1014.1 |
| 20260905211945 | 84 | 76 | 0.9 | 1.7 | 0.00 | 0.00 | 0.00 | 63 | 1014.1 |
| 20260905211045 | 84 | 230 | 0.9 | 1.7 | 0.00 | 0.00 | 0.00 | 63 | 1014.1 |
| 20260905205245 | 82 | 44 | 0.9 | 1.7 | 0.00 | 0.00 | 0.00 | 55 | 1014.2 |
| 20260905204345 | 80 | 195 | 0.9 | 1.7 | 0.00 | 0.00 | 0.00 | 55 | 1014.4 |
| 20260905203445 | 80 | 270 | 0.0 | 0.9 | 0.00 | 0.00 | 0.00 | 56 | 1014.3 |
| 20260905201645 | 81 | 13 | 0.9 | 1.7 | 0.00 | 0.00 | 0.00 | 55 | 1014.4 |
| 20260905200745 | 81 | 359 | 0.9 | 2.6 | 0.00 | 0.00 | 0.00 | 56 | 1014.3 |
| 20260905195845 | 81 | 279 | 0.9 | 2.6 | 0.00 | 0.00 | 0.00 | 57 | 1014.4 |
| 20260905194945 | 81 | 238 | 0.9 | 1.7 | 0.00 | 0.00 | 0.00 | 58 | 1014.4 |
| 20260905194045 | 82 | 246 | 0.0 | 2.6 | 0.00 | 0.00 | 0.00 | 57 | 1014.4 |
| 20260905193145 | 82 | 188 | 0.9 | 1.7 | 0.00 | 0.00 | 0.00 | 60 | 1014.5 |
| 20260905192245 | 83 | 139 | 0.9 | 2.6 | 0.00 | 0.00 | 0.00 | 62 | 1014.6 |
| 20260905191345 | 84 | 110 | 0.9 | 1.7 | 0.00 | 0.00 | 0.00 | 63 | 1014.6 |
| 20260905190445 | 84 | 43 | 0.9 | 2.6 | 0.00 | 0.00 | 0.00 | 63 | 1014.7 |
| 20260905185545 | 84 | 182 | 0.9 | 2.6 | 0.00 | 0.00 | 0.00 | 63 | 1014.5 |
| 20260905183745 | 84 | 290 | 0.9 | 4.3 | 0.00 | 0.00 | 0.00 | 62 | 1014.8 |
| 20260905182845 | 84 | 328 | 0.9 | 3.5 | 0.00 | 0.00 | 0.00 | 61 | 1014.7 |
| 20260905181945 | 84 | 10 | 0.9 | 2.6 | 0.00 | 0.00 | 0.00 | 61 | 1014.6 |
| 20260905181045 | 84 | 304 | 0.9 | 2.6 | 0.00 | 0.00 | 0.00 | 61 | 1014.6 |
| 20260905175245 | 84 | 292 | 0.9 | 2.6 | 0.00 | 0.00 | 0.00 | 60 | 1014.5 |
| 20260905174345 | 84 | 342 | 0.9 | 1.7 | 0.00 | 0.00 | 0.00 | 58 | 1014.6 |
| 20260905173445 | 84 | 3 | 0.9 | 1.7 | 0.00 | 0.00 | 0.00 | 59 | 1014.4 |
| 20260905172545 | 84 | 113 | 0.9 | 2.6 | 0.00 | 0.00 | 0.00 | 59 | 1014.4 |
| 20260905171645 | 84 | 270 | 0.9 | 1.7 | 0.00 | 0.00 | 0.00 | 55 | 1014.5 |
| 20260905170745 | 84 | 88 | 0.9 | 2.6 | 0.00 | 0.00 | 0.00 | 57 | 1014.5 |
| 20260905164945 | 83 | 343 | 0.9 | 2.6 | 0.00 | 0.00 | 0.00 | 55 | 1014.6 |
| 20260905164045 | 83 | 85 | 0.9 | 2.6 | 0.00 | 0.00 | 0.00 | 51 | 1014.7 |
| 20260905163145 | 82 | 1 | 0.9 | 3.5 | 0.00 | 0.00 | 0.00 | 53 | 1014.6 |
| 20260905162245 | 82 | 19 | 0.9 | 1.7 | 0.00 | 0.00 | 0.00 | 53 | 1014.6 |
| 20260905160445 | 82 | 26 | 0.9 | 2.6 | 0.00 | 0.00 | 0.00 | 47 | 1014.6 |
| 20260905155545 | 81 | 307 | 0.0 | 1.7 | 0.00 | 0.00 | 0.00 | 44 | 1014.6 |
| 20260905154645 | 81 | 268 | 0.0 | 1.7 | 0.00 | 0.00 | 0.00 | 42 | 1014.5 |
| 20260905153745 | 80 | 120 | 0.9 | 2.6 | 0.00 | 0.00 | 0.00 | 36 | 1014.5 |
| 20260905151045 | 80 | 327 | 0.9 | 2.6 | 0.00 | 0.00 | 0.00 | 24 | 1014.1 |
| 20260905150145 | 80 | 339 | 0.9 | 1.7 | 0.00 | 0.00 | 0.00 | 23 | 1014.1 |
| 20260905145245 | 79 | 318 | 0.9 | 2.6 | 0.00 | 0.00 | 0.00 | 22 | 1014.1 |
| 20260905144345 | 79 | 286 | 0.9 | 1.7 | 0.00 | 0.00 | 0.00 | 16 | 1014.0 |
| 20260905143445 | 78 | 4 | 0.0 | 1.7 | 0.00 | 0.00 | 0.00 | 9 | 1013.9 |
| 20260905142545 | 78 | 304 | 0.0 | 2.6 | 0.00 | 0.00 | 0.00 | 1 | 1014.0 |
| 20260905141645 | 77 | 345 | 0.0 | 2.6 | 0.00 | 0.00 | 0.00 | 1 | 1013.9 |
| 20260905140745 | 77 | 237 | 0.0 | 0.9 | 0.00 | 0.00 | 0.00 | 1 | 1013.7 |
| 20260905135845 | 76 | 277 | 0.0 | 2.6 | 0.00 | 0.00 | 0.00 | 1 | 1013.7 |
| 20260905133144 | 76 | 22 | 0.0 | 1.7 | 0.00 | 0.00 | 0.00 | 1 | 1014.0 |
| 20260905132245 | 76 | 284 | 0.0 | 1.7 | 0.00 | 0.00 | 0.00 | 1 | 1014.1 |
| 20260905131344 | 76 | 277 | 0.0 | 1.7 | 0.00 | 0.00 | 0.00 | 1 | 1014.0 |
| 20260905130445 | 76 | 298 | 0.0 | 1.7 | 0.00 | 0.00 | 0.00 | 1 | 1013.6 |
| 20260905125544 | 76 | 321 | 0.9 | 1.7 | 0.00 | 0.00 | 0.00 | 1 | 1013.4 |
| 20260905124644 | 76 | 322 | 0.0 | 0.9 | 0.00 | 0.00 | 0.00 | 1 | 1013.3 |
| 20260905123744 | 76 | 29 | 0.0 | 0.9 | 0.00 | 0.00 | 0.00 | 1 | 1013.1 |
| 20260905121944 | 76 | 21 | 0.0 | 0.9 | 0.00 | 0.00 | 0.00 | 1 | 1013.0 |